Weather History for Clinton, IA

Change the Weather History Date:

Sunday, January 13, 2013

  Actual Average Record
Temperature  
Mean Temperature 14 °F -  
Max Temperature 21 °F 29 °F 57 °F (1961)
Min Temperature 8 °F 13 °F -9 °F (1963)
Degree Days  
Heating Degree Days 50    
Moisture  
Dew Point 7 °F    
Average Humidity 70    
Maximum Humidity 86    
Minimum Humidity 58    
Precipitation  
Precipitation 0.00 in - - ()
Sea Level Pressure  
Sea Level Pressure 30.12 in    
Wind  
Wind Speed 14 mph (WNW)    
Max Wind Speed 22 mph    
Max Gust Speed 25 mph    
Visibility 10 miles    
Events      
Averages and records for this station are not official NWS values.
T = Trace of Precipitation, MM = Missing Value Source: NWS Daily Summary

Daily Weather History Graph

Daily Weather History Graph

Search for Another Location

Airport:

Trip Planner

Search our weather history database for the weather conditions in past years. The results will help you decide how hot, cold, wet, or windy it might be!

Date:

Astronomy

Jan. 13, 2013 Rise Set
Actual Time 7:27 AM CST 4:53 PM CST
Civil Twilight 6:56 AM CST 5:24 PM CST
Nautical Twilight 6:21 AM CST 5:58 PM CST
Astronomical Twilight 5:48 AM CST 6:32 PM CST
Moon 8:23 AM CST (1/13) 7:35 PM CST (1/13)
Length of Visible Light 10h 28m
Length of Day
9h 26m
Waxing Crescent, 5% of the Moon is Illuminated
Jan 13
Waxing Crescent
Jan 18
First Quarter
Jan 26
Full
Feb 3
Last Quarter
Feb 10
New

Hourly Weather History & Observations

Time (CST) Temp. Windchill Dew Point Humidity Pressure Visibility Wind Dir Wind Speed Gust Speed Precip Events Conditions
12:15 AM 19.4 °F 6.6 °F 15.8 °F 86% 29.99 in 10.0 mi NW 12.7 mph - N/A   Clear
12:35 AM 19.4 °F 6.0 °F 15.8 °F 86% 29.97 in 6.0 mi NNW 13.8 mph - N/A   Partly Cloudy
12:55 AM 19.4 °F 8.6 °F 15.8 °F 86% 29.97 in 9.0 mi NNW 9.2 mph - N/A   Partly Cloudy
1:15 AM 19.4 °F 9.5 °F 12.2 °F 74% 29.96 in 10.0 mi NNW 8.1 mph - N/A   Partly Cloudy
1:35 AM 19.4 °F 8.6 °F 14.0 °F 80% 29.99 in 10.0 mi NW 9.2 mph - N/A   Mostly Cloudy
1:55 AM 21.2 °F 8.9 °F 12.2 °F 68% 29.98 in 10.0 mi NW 12.7 mph - N/A   Overcast
2:15 AM 21.2 °F 8.3 °F 12.2 °F 68% 30.03 in 10.0 mi WNW 13.8 mph - N/A   Mostly Cloudy
2:35 AM 19.4 °F 7.2 °F 12.2 °F 74% 30.01 in 10.0 mi NNW 11.5 mph - N/A   Mostly Cloudy
2:55 AM 19.4 °F 6.6 °F 10.4 °F 68% 30.01 in 10.0 mi NNW 12.7 mph - N/A   Scattered Clouds
3:15 AM 19.4 °F 7.2 °F 10.4 °F 68% 30.00 in 10.0 mi NW 11.5 mph - N/A   Overcast
3:35 AM 19.4 °F 7.2 °F 10.4 °F 68% 30.02 in 10.0 mi NW 11.5 mph - N/A   Overcast
3:55 AM 19.4 °F 6.6 °F 10.4 °F 68% 30.01 in 10.0 mi NW 12.7 mph - N/A   Overcast
4:15 AM 19.4 °F 7.2 °F 10.4 °F 68% 30.02 in 10.0 mi NW 11.5 mph - N/A   Overcast
4:35 AM 17.6 °F 3.2 °F 10.4 °F 73% 30.03 in 10.0 mi WNW 15.0 mph - N/A   Overcast
4:55 AM 17.6 °F 3.7 °F 10.4 °F 73% 30.05 in 10.0 mi NW 13.8 mph - N/A   Overcast
5:15 AM 17.6 °F 3.7 °F 8.6 °F 68% 30.03 in 10.0 mi NW 13.8 mph - N/A   Overcast
5:35 AM 17.6 °F 5.7 °F 8.6 °F 68% 30.04 in 10.0 mi NW 10.4 mph - N/A   Overcast
5:55 AM 17.6 °F 5.0 °F 8.6 °F 68% 30.05 in 10.0 mi WNW 11.5 mph - N/A   Overcast
6:15 AM 17.6 °F 3.7 °F 8.6 °F 68% 30.05 in 10.0 mi NW 13.8 mph - N/A   Overcast
6:35 AM 17.6 °F 3.7 °F 8.6 °F 68% 30.05 in 10.0 mi NW 13.8 mph - N/A   Overcast
6:55 AM 15.8 °F 1.4 °F 8.6 °F 73% 30.06 in 10.0 mi WNW 13.8 mph - N/A   Overcast
7:15 AM 15.8 °F 0.3 °F 8.6 °F 73% 30.08 in 10.0 mi WNW 16.1 mph - N/A   Overcast
7:35 AM 15.8 °F 0.3 °F 6.8 °F 68% 30.09 in 10.0 mi WNW 16.1 mph - N/A   Overcast
7:55 AM 15.8 °F 0.9 °F 6.8 °F 68% 30.09 in 10.0 mi NW 15.0 mph 19.6 mph N/A   Overcast
8:15 AM 15.8 °F 0.9 °F 6.8 °F 68% 30.10 in 10.0 mi NW 15.0 mph - N/A   Overcast
8:35 AM 15.8 °F -0.2 °F 6.8 °F 68% 30.12 in 10.0 mi WNW 17.3 mph 21.9 mph N/A   Overcast
8:55 AM 14.0 °F -3.0 °F 5.0 °F 67% 30.11 in 10.0 mi WNW 18.4 mph - N/A   Overcast
9:15 AM 14.0 °F -2.0 °F 5.0 °F 67% 30.10 in 10.0 mi WNW 16.1 mph - N/A   Overcast
9:35 AM 14.0 °F -1.4 °F 5.0 °F 67% 30.10 in 10.0 mi WNW 15.0 mph - N/A   Overcast
9:55 AM 14.0 °F -2.5 °F 5.0 °F 67% 30.11 in 10.0 mi NW 17.3 mph - N/A   Overcast
10:15 AM 14.0 °F -1.4 °F 5.0 °F 67% 30.11 in 10.0 mi WNW 15.0 mph - N/A   Overcast
10:35 AM 14.0 °F -1.4 °F 5.0 °F 67% 30.12 in 10.0 mi WNW 15.0 mph - N/A   Scattered Clouds
10:55 AM 15.8 °F -0.6 °F 5.0 °F 62% 30.10 in 10.0 mi NW 18.4 mph - N/A   Scattered Clouds
11:15 AM 15.8 °F -0.2 °F 6.8 °F 68% 30.10 in 10.0 mi WNW 17.3 mph - N/A   Mostly Cloudy
11:35 AM 15.8 °F -0.6 °F 5.0 °F 62% 30.10 in 10.0 mi WNW 18.4 mph - N/A   Mostly Cloudy
11:55 AM 15.8 °F -0.6 °F 6.8 °F 68% 30.10 in 10.0 mi WNW 18.4 mph 21.9 mph N/A   Scattered Clouds
12:15 PM 14.0 °F -3.0 °F 5.0 °F 67% 30.11 in 10.0 mi West 18.4 mph - N/A   Scattered Clouds
12:35 PM 14.0 °F -3.4 °F 5.0 °F 67% 30.10 in 10.0 mi WNW 19.6 mph - N/A   Mostly Cloudy
12:55 PM 15.8 °F -1.1 °F 5.0 °F 62% 30.09 in 10.0 mi WNW 19.6 mph 24.2 mph N/A   Scattered Clouds
1:15 PM 15.8 °F -1.5 °F 8.6 °F 73% 30.09 in 10.0 mi WNW 20.7 mph - N/A   Mostly Cloudy
1:35 PM 15.8 °F -1.5 °F 6.8 °F 68% 30.08 in 10.0 mi WNW 20.7 mph 25.3 mph N/A   Mostly Cloudy
1:55 PM 15.8 °F -0.6 °F 6.8 °F 68% 30.08 in 10.0 mi WNW 18.4 mph - N/A   Mostly Cloudy
2:15 PM 15.8 °F -1.9 °F 6.8 °F 68% 30.08 in 10.0 mi WNW 21.9 mph - N/A   Mostly Cloudy
2:35 PM 15.8 °F -1.5 °F 6.8 °F 68% 30.10 in 10.0 mi West 20.7 mph - N/A   Scattered Clouds
2:55 PM 15.8 °F 0.3 °F 3.2 °F 58% 30.12 in 10.0 mi WNW 16.1 mph - N/A   Partly Cloudy
3:15 PM 15.8 °F 0.3 °F 6.8 °F 68% 30.14 in 10.0 mi WNW 16.1 mph - N/A   Mostly Cloudy
3:35 PM 15.8 °F -0.2 °F 6.8 °F 68% 30.14 in 10.0 mi WNW 17.3 mph 23.0 mph N/A   Overcast
3:55 PM 15.8 °F -1.1 °F 6.8 °F 68% 30.15 in 10.0 mi West 19.6 mph - N/A   Overcast
4:15 PM 14.0 °F -1.4 °F 3.2 °F 62% 30.16 in 10.0 mi West 15.0 mph 23.0 mph N/A   Scattered Clouds
4:35 PM 14.0 °F -2.0 °F 5.0 °F 67% 30.17 in 10.0 mi WNW 16.1 mph - N/A   Partly Cloudy
4:55 PM 12.2 °F -3.7 °F 5.0 °F 73% 30.18 in 10.0 mi West 15.0 mph - N/A   Scattered Clouds
5:15 PM 12.2 °F -4.8 °F 5.0 °F 73% 30.19 in 10.0 mi WNW 17.3 mph - N/A   Mostly Cloudy
5:35 PM 12.2 °F -4.3 °F 3.2 °F 67% 30.20 in 10.0 mi West 16.1 mph 21.9 mph N/A   Mostly Cloudy
5:55 PM 12.2 °F -3.7 °F 3.2 °F 67% 30.21 in 10.0 mi West 15.0 mph - N/A   Clear
6:15 PM 12.2 °F -3.1 °F 3.2 °F 67% 30.21 in 10.0 mi WNW 13.8 mph - N/A   Clear
6:35 PM 12.2 °F -3.7 °F 5.0 °F 73% 30.22 in 10.0 mi WNW 15.0 mph - N/A   Clear
6:55 PM 12.2 °F -4.8 °F 5.0 °F 73% 30.22 in 10.0 mi WNW 17.3 mph 21.9 mph N/A   Clear
7:15 PM 12.2 °F -3.1 °F 3.2 °F 67% 30.23 in 10.0 mi WNW 13.8 mph - N/A   Clear
7:35 PM 12.2 °F -3.1 °F 3.2 °F 67% 30.24 in 10.0 mi WNW 13.8 mph - N/A   Clear
7:55 PM 10.4 °F -3.3 °F 3.2 °F 73% 30.24 in 10.0 mi WNW 10.4 mph - N/A   Clear
8:15 PM 10.4 °F -1.5 °F 3.2 °F 73% 30.25 in 10.0 mi WNW 8.1 mph - N/A   Clear
8:35 PM 8.6 °F -3.7 °F 3.2 °F 79% 30.25 in 10.0 mi WNW 8.1 mph - N/A   Clear
8:55 PM 8.6 °F -3.7 °F 3.2 °F 79% 30.25 in 10.0 mi WNW 8.1 mph - N/A   Clear
9:15 PM 8.6 °F -1.3 °F 1.4 °F 73% 30.26 in 10.0 mi WNW 5.8 mph - N/A   Clear
9:35 PM 8.6 °F -3.7 °F 1.4 °F 73% 30.26 in 10.0 mi WNW 8.1 mph - N/A   Clear
9:55 PM 8.6 °F -5.5 °F 1.4 °F 73% 30.26 in 10.0 mi WNW 10.4 mph - N/A   Clear
10:15 PM 8.6 °F -5.5 °F 3.2 °F 79% 30.26 in 10.0 mi WNW 10.4 mph - N/A   Clear
10:35 PM 10.4 °F -3.3 °F 3.2 °F 73% 30.26 in 10.0 mi WNW 10.4 mph - N/A   Clear
10:55 PM 8.6 °F -4.7 °F 1.4 °F 73% 30.26 in 10.0 mi WNW 9.2 mph - N/A   Clear
11:35 PM 8.6 °F - 1.4 °F 73% 30.29 in 10.0 mi Calm Calm - N/A   Clear
11:55 PM 8.6 °F 2.0 °F 3.2 °F 79% 30.29 in 10.0 mi WNW 3.5 mph - N/A   Clear